Theta_e
299 299 300 299 300 300 299 299 299 300 300 301 301 301 301 302 301 301 301 301 300 301 300 300 299 298 299 298 297 297 298 299 300 300 300 301 301 300 300 298 297 298
299 299 300 299 299 298 299 300 300 300 300 301 301 301 301 300 300 301 301 301 300 300 300 300 299 298 298 298 297 297 297 297 298 299 300 299 301 300 300 299 299 298
298 298 298 299 299 298 298 299 299 300 300 300 300 300 300 300 300 300 301 301 300 300 300 300 299 298 298 298 297 297 297 296 297 298 299 299 299 299 300 299 298 298
298 298 298 298 298 298 298 298 298 299 299 299 299 300 301 300 300 300 300 300 300 300 299 299 299 299 298 298 297 297 297 297 297 297 298 298 298 299 299 299 299 298
298 298 298 298 297 297 297 298 298 298 298 299 299 299 299 299 299 299 299 300 300 300 299 299 299 298 298 297 297 297 296 296 295 295 296 297 298 298 299 298 298 298
297 298 298 298 297 297 297 298 298 298 298 298 299 299 299 299 299 299 299 299 299 300 299 298 298 298 297 297 297 297 297 296 296 295 295 296 297 297 298 297 297 297
297 297 297 297 297 297 298 298 298 298 299 299 298 299 299 298 298 299 298 299 299 299 299 298 298 298 297 297 297 297 296 297 296 295 295 296 296 295 295 296 297 297
296 296 297 296 296 296 297 297 297 298 298 297 298 298 298 298 298 299 298 298 298 298 298 298 298 298 297 297 297 296 296 297 296 295 295 295 294 295 294 295 296 296
296 296 296 296 296 296 296 297 297 296 295 297 298 297 297 298 298 298 298 298 298 298 298 298 298 298 297 297 297 297 296 296 296 295 295 295 294 295 295 294 294 295
295 295 295 295 296 297 297 297 297 296 295 296 296 296 297 296 297 297 297 297 297 297 297 297 297 297 297 297 297 297 296 296 296 295 295 295 295 295 294 293 294 294
294 294 295 295 296 296 296 295 294 295 293 294 294 294 294 295 294 294 296 296 297 297 296 296 296 296 296 296 296 296 296 296 296 295 295 295 295 295 294 294 294 294
293 292 294 295 295 294 294 294 294 292 292 292 293 295 293 293 295 295 296 296 296 297 296 296 296 296 296 296 296 295 295 295 295 295 295 295 295 295 294 293 294 294
292 293 293 293 292 293 293 290 291 292 291 293 291 293 293 292 291 293 293 295 296 295 295 295 295 295 295 295 295 295 295 294 294 294 294 294 294 294 293 293 293 294
290 290 290 291 290 289 289 290 289 289 290 291 290 291 292 292 292 293 292 292 294 294 295 294 294 294 294 294 294 294 294 294 294 293 293 293 292 293 293 293 293 293
287 286 286 287 287 287 287 288 289 289 289 289 288 289 292 291 292 292 291 290 289 291 291 291 293 294 294 294 293 293 293 293 293 293 293 292 292 292 292 292 292 292
285 285 286 286 286 287 288 287 287 287 288 287 288 288 288 288 288 288 290 291 291 289 288 290 292 293 292 293 294 294 293 293 293 292 292 292 291 291 290 290 291 291
285 285 285 287 286 286 285 286 285 285 285 286 286 286 286 286 287 287 287 288 290 290 289 289 289 290 292 294 295 295 293 291 291 291 290 290 290 290 290 290 289 290
285 284 285 285 285 285 284 284 284 284 285 285 285 286 286 285 286 286 286 285 286 286 286 286 287 291 293 294 294 295 293 291 291 290 290 289 288 289 289 289 288 288
284 286 284 284 284 284 284 284 284 284 284 285 286 284 284 286 284 285 285 284 285 286 286 285 284 290 293 293 294 294 294 292 290 289 289 287 287 287 287 287 287 287
284 285 285 284 283 283 284 284 285 286 284 284 284 283 285 284 284 284 283 284 283 285 284 283 285 287 291 292 292 293 293 293 286 287 286 286 286 286 286 286 286 287
284 283 283 283 282 283 282 283 284 282 283 283 284 285 286 286 285 285 283 282 282 282 284 283 282 289 291 292 292 293 293 293 286 285 285 284 285 283 284 284 284 286
282 282 282 281 282 282 283 282 282 283 284 281 281 282 282 282 282 282 282 283 282 281 283 285 281 289 290 291 292 293 293 286 284 284 283 283 283 282 282 283 283 284
281 282 282 281 281 282 281 281 281 282 282 281 282 280 281 282 282 282 280 281 280 281 282 282 282 285 289 290 291 292 289 282 283 282 282 282 281 282 282 281 282 282
280 281 281 281 281 281 280 280 280 280 281 281 281 281 282 281 280 280 280 280 281 281 281 282 280 284 289 289 290 290 287 282 282 282 282 281 280 280 281 281 281 284
280 280 280 280 281 279 279 281 280 279 279 279 280 280 280 279 280 282 280 281 281 281 280 280 279 282 287 287 288 287 284 281 282 282 282 281 281 282 281 281 281 283
278 278 278 278 279 279 280 279 278 279 279 279 279 279 280 279 280 281 280 279 279 279 279 278 279 280 283 286 286 286 285 281 282 282 283 284 284 284 284 283 283 283
Wind_Speed
9 8 9 9 9 8 8 9 8 9 9 9 10 10 11 11 6 9 10 8 9 9 9 9 7 8 8 8 8 8 8 9 8 7 9 9 9 9 9 9 8 8
9 9 8 8 7 7 7 9 9 10 10 9 9 8 7 6 7 9 10 10 9 10 8 8 8 8 8 8 8 9 8 7 9 6 8 9 9 8 9 9 10 8
6 6 8 9 9 9 8 7 8 8 9 10 8 7 8 7 8 8 9 9 9 9 9 9 8 8 8 8 8 8 8 8 9 7 8 10 9 9 9 9 8 9
7 7 7 7 6 7 6 7 7 7 6 7 9 9 8 7 8 9 9 10 9 9 9 8 9 8 8 8 8 8 8 9 9 7 8 7 8 9 9 8 8 8
7 7 6 5 5 5 5 7 8 7 8 9 6 6 7 7 8 8 8 9 9 9 8 9 8 8 8 8 8 8 8 8 7 7 8 9 8 8 9 8 9 10
6 6 6 7 6 6 7 7 7 7 8 7 8 6 8 8 8 9 9 10 9 9 8 8 8 8 8 8 8 9 9 8 8 8 8 9 9 8 7 8 8 10
7 6 7 6 6 7 7 7 7 7 8 8 5 8 7 8 9 9 9 10 10 9 10 9 9 9 8 8 8 9 8 9 8 9 10 10 8 9 7 7 9 10
7 5 6 5 6 6 7 7 6 7 6 5 8 8 8 9 10 9 8 9 9 10 9 9 9 9 9 8 10 9 9 7 8 9 10 10 7 9 8 8 8 10
6 6 5 6 7 7 7 7 6 5 5 7 8 7 7 8 9 9 9 8 8 8 9 9 9 9 9 9 10 10 10 8 8 8 10 10 10 11 10 8 8 10
7 6 6 7 8 8 8 7 6 6 5 6 6 5 7 7 6 7 7 8 8 8 9 9 9 8 8 9 10 9 9 10 9 9 9 10 10 10 8 8 10 9
7 7 7 7 8 7 7 6 6 6 5 6 5 5 5 5 5 5 6 7 9 9 8 8 9 9 9 8 8 8 9 9 9 9 9 10 10 10 8 8 9 11
7 6 7 8 8 7 7 6 5 5 5 4 5 6 5 5 6 6 7 8 8 8 8 8 8 8 9 9 8 8 8 8 8 8 9 9 9 8 7 7 9 10
6 7 7 6 6 6 5 4 4 5 4 5 4 5 5 5 4 5 5 6 7 7 7 7 7 7 8 7 7 7 8 8 8 7 7 7 7 8 7 7 8 8
6 5 5 5 5 4 4 5 4 4 5 5 4 5 5 5 5 6 6 5 6 6 6 6 6 6 6 6 6 7 7 7 7 7 8 7 7 7 7 8 8 9
4 4 4 4 4 4 4 4 5 5 5 5 4 5 5 5 5 5 5 5 4 5 5 5 6 6 6 7 7 7 7 8 8 8 8 8 8 8 7 8 8 8
4 4 5 4 4 5 5 5 5 5 5 4 5 5 4 4 4 4 5 6 6 5 5 5 6 5 7 11 10 8 7 7 6 7 7 7 8 8 7 7 8 7
4 4 4 4 4 4 3 4 3 3 3 3 3 3 4 4 4 4 4 5 5 5 5 5 4 3 7 9 11 11 7 6 7 7 6 6 6 7 8 8 7 7
4 4 4 2 3 3 3 3 3 3 3 3 3 2 1 2 3 4 3 3 3 2 3 3 2 3 5 6 7 9 8 6 6 6 6 6 6 7 8 7 7 6
4 5 4 4 4 3 3 4 4 4 4 4 4 3 4 4 3 3 2 2 2 2 1 1 1 2 3 4 5 5 7 7 5 5 6 5 5 5 6 6 6 6
4 4 4 4 3 4 4 4 4 5 4 4 5 4 5 4 3 3 3 3 3 3 2 1 0 2 2 2 3 4 5 5 4 5 5 5 5 5 5 5 5 6
3 3 3 2 2 2 3 3 3 3 3 3 4 5 5 6 5 4 3 3 3 3 3 2 1 3 3 3 3 4 5 6 4 4 4 4 5 4 4 4 4 5
4 4 3 3 2 2 2 1 1 0 1 0 1 1 1 2 2 2 3 2 1 3 2 1 1 3 2 1 2 3 3 3 3 3 4 4 5 3 4 4 4 4
3 4 4 3 3 3 2 1 1 1 1 2 2 1 1 2 2 1 1 2 2 2 2 1 5 6 6 6 5 5 4 2 2 2 2 2 3 2 3 3 3 3
4 4 5 4 4 4 3 3 2 3 3 3 2 2 2 2 2 3 3 2 2 1 1 5 4 7 9 9 8 7 5 2 1 1 0 0 2 2 2 2 3 5
5 6 5 5 5 3 3 4 4 3 1 3 4 4 3 2 3 5 4 5 5 5 8 7 5 7 10 10 11 9 6 4 4 3 2 2 2 4 3 2 3 4
5 6 5 5 4 3 4 4 3 3 5 4 4 4 4 4 4 5 6 6 6 7 7 6 6 6 7 12 11 12 10 5 4 4 3 3 3 3 3 3 3 3
Wind_Direction
196 194 198 199 206 202 191 192 194 194 199 197 200 204 203 209 186 189 200 197 199 200 201 198 191 189 191 189 192 192 195 201 202 195 198 197 208 200 202 205 204 202
202 197 198 198 202 201 201 194 193 196 200 200 207 203 204 186 194 189 196 199 198 203 199 197 192 191 188 189 192 193 198 198 206 193 196 201 209 202 210 207 209 209
206 204 201 200 202 203 200 196 195 201 199 204 201 195 199 193 192 194 195 197 199 202 199 197 195 194 191 192 189 195 197 198 208 197 197 204 202 202 211 207 209 206
214 209 207 211 206 203 197 191 203 203 203 197 203 202 196 192 189 193 197 196 200 201 201 195 198 195 194 193 187 198 202 204 207 189 202 210 209 205 210 202 208 209
209 213 214 211 211 205 191 201 204 203 204 209 205 198 192 189 192 194 196 200 200 203 197 200 197 197 192 193 189 198 201 206 203 193 201 210 214 205 212 199 206 212
218 209 207 204 200 193 200 206 208 202 205 207 207 190 199 195 194 194 196 198 200 201 199 197 197 199 192 195 192 203 199 203 202 195 204 212 217 214 210 205 209 214
214 208 212 206 203 201 203 207 206 204 205 205 182 202 193 197 198 199 198 200 198 199 199 196 197 199 194 193 197 204 205 206 201 197 206 216 214 220 215 210 215 220
212 207 208 201 206 208 215 211 208 206 200 185 200 204 191 200 201 200 200 198 197 202 201 200 199 199 194 191 200 202 207 205 206 203 211 217 208 222 212 215 216 222
201 204 202 206 205 212 214 214 211 205 192 195 203 202 200 202 201 200 199 195 200 201 200 201 200 201 197 197 203 202 206 207 207 206 212 215 214 221 216 212 218 225
201 202 197 204 209 215 216 217 211 205 190 201 205 198 200 208 201 199 195 196 200 201 200 202 201 200 198 201 203 201 205 207 205 209 213 217 219 222 217 206 218 225
205 198 198 203 211 213 220 218 215 207 193 200 194 201 204 192 204 190 195 196 202 202 203 203 202 198 200 202 204 203 207 208 207 210 215 218 220 222 216 211 220 225
201 194 201 203 204 209 214 214 211 206 206 209 193 202 197 195 190 193 192 200 205 205 203 205 199 200 202 201 200 200 204 208 209 210 215 218 221 222 215 210 220 228
195 200 199 200 200 206 204 202 204 206 200 210 202 200 195 198 199 195 206 199 207 201 202 198 199 199 201 199 198 199 203 206 211 213 217 219 224 222 217 214 219 227
202 194 191 195 195 191 193 198 199 199 205 209 184 196 199 198 195 196 205 195 201 200 205 196 198 197 197 197 197 198 200 208 208 211 216 220 225 224 218 219 218 222
186 188 179 179 179 180 188 196 199 202 201 197 190 201 203 203 197 189 186 198 201 198 198 193 193 199 192 192 194 200 200 206 207 210 213 218 224 227 226 223 223 223
177 169 173 171 165 179 192 191 191 192 185 185 195 201 202 201 190 189 186 191 195 201 198 193 200 198 197 195 195 195 200 207 208 212 214 218 223 231 235 229 229 226
151 162 147 162 181 170 162 161 170 161 164 178 191 186 196 195 176 185 199 197 193 192 198 203 202 192 200 201 204 203 195 201 207 216 213 219 224 229 237 237 235 234
145 131 124 123 114 132 136 136 118 119 125 135 135 139 144 125 163 196 196 195 186 180 183 186 188 186 197 204 209 210 205 202 207 215 214 218 225 229 239 242 242 240
132 130 133 131 138 139 136 125 124 118 127 134 142 153 131 135 154 137 147 132 149 154 165 147 168 219 193 200 205 209 213 209 214 214 219 230 227 232 240 246 250 251
125 129 137 147 143 140 134 133 138 152 155 150 138 138 134 131 133 136 134 143 149 153 150 109 197 245 199 201 200 205 214 204 207 209 218 227 229 232 236 246 246 248
90 92 99 80 59 102 108 123 139 151 153 175 163 164 164 167 164 161 171 157 149 141 138 158 215 211 213 202 202 201 203 193 189 189 201 216 223 221 223 227 235 234
91 93 88 81 73 67 77 66 26 70 124 273 64 38 34 71 59 104 138 153 124 118 113 125 333 11 42 113 162 191 181 160 159 180 197 212 223 220 222 226 225 227
70 96 84 71 73 76 56 43 29 6 16 8 53 27 68 78 114 81 98 103 85 87 99 50 25 6 27 43 45 46 84 102 129 146 182 218 245 234 226 227 225 219
56 70 77 69 69 65 60 52 38 40 38 20 96 77 48 19 42 40 20 45 81 87 103 83 50 22 46 50 52 55 75 96 115 123 190 294 301 302 281 267 255 243
71 73 73 72 69 58 59 60 51 49 8 39 51 70 60 43 58 75 57 38 43 56 58 73 60 29 37 47 49 50 51 48 60 69 49 354 342 321 316 295 291 283
66 74 69 68 67 61 54 49 21 38 36 49 41 58 67 51 59 73 70 47 41 53 52 49 56 39 36 49 53 52 55 61 50 55 28 11 353 330 331 329 318 313